sat.trackr.live / text

‹ back to catalog

STARLINK-35883

NORAD 66892 · 2025-283Q

PAYLOAD ACTIVE UNKNOWN

§ Identity

Operator
Country
US
Launch date
2025-12-04
Launch site
AFWTR
Launch vehicle
Mass (kg)
RCS (m²)

Purposes: comms

External: N2YO · Heavens-Above · Gunter

§ Orbital elements

Epoch: 2026-09-20T05:08:48.544800Z

Period
93.85 min
Inclination
53.1591°
Eccentricity
0.0001279
Mean motion
15.34424206 rev/d
Perigee alt
461.8 km
Apogee alt
463.5 km
Semi-major
6,840.8 km
B*
5.9840e-4
RAAN
198.7102°
Arg perigee
98.4861°
Mean anomaly
261.6287°
Rev number
4,565

§ Raw data

STARLINK-358831 66892U 25283Q   26263.21445075  .00019911  00000+0  59840-3 0  99972 66892  53.1591 198.7102 0001279  98.4861 261.6287 15.34424206 45653

JSON: /api/v1/satellites/66892 · /tle

For live sub-satellite position, see the globe view (requires WebGL).

§ Visibility from observer

Set your observer location to see the next 7 days of passes ≥ 10°. The values pass through the URL so the page stays shareable.

No JS? Fill the form by hand. The geolocation button needs JavaScript.